Location: Cuiry
(49.3858°N, 3.7708°E)
Time: 17:44:55
(UTC+00:00)

COSMO-SKYMED 1 - Visible Passes

Search period start: 11 April 2026 00:00
Search period end: 21 April 2026 00:00
Orbit: 576 x 578 km, 97.9° (Epoch: 11 April)

Date Brightness Start Highest point End Pass type
(mag) Time Alt. Az. Time Alt. Az. Time Alt. Az.
11 Apr 5.8 03:57:58 10° E 04:00:31 16° ENE 04:03:05 10° NNE visible
12 Apr 5.7 04:01:42 10° ESE 04:04:25 17° ENE 04:07:09 10° NNE visible
13 Apr 5.7 04:05:26 10° ESE 04:08:19 19° ENE 04:11:12 10° NNE visible
14 Apr 5.6 04:09:11 10° ESE 04:12:12 20° ENE 04:15:14 10° NNE visible
15 Apr 5.5 04:12:57 10° ESE 04:16:06 22° ENE 04:19:15 10° NNE visible
16 Apr 5.4 04:16:43 10° ESE 04:19:59 23° ENE 04:23:15 10° N visible
17 Apr 4.2 19:06:29 10° N 19:10:20 39° WNW 19:14:09 10° SW visible
18 Apr 4.4 19:10:26 10° N 19:14:14 36° WNW 19:17:58 10° SW visible
19 Apr 4.6 19:14:23 10° N 19:18:06 33° WNW 19:21:47 10° SW visible
20 Apr 4.7 19:18:20 10° N 19:21:59 31° WNW 19:25:36 10° SW visible
